| time (UTC) | temp F | wind direction | speed MPH | gust MPH | rain 1hr in | rain 24hr in | rain mn in | humidity % | barometer mb |
| 20260906155919 | 80 | 219 | 6.0 | 16.0 | 0.00 | 0.00 | 0.00 | 42 | 1015.3 |
| 20260906145918 | 80 | 240 | 7.0 | 17.0 | 0.00 | 0.00 | 0.00 | 47 | 1016.1 |
| 20260906142911 | 82 | 211 | 7.0 | 15.0 | 0.00 | 0.00 | 0.00 | 45 | 1016.6 |
| 20260906135913 | 80 | 159 | 7.0 | 17.0 | 0.00 | 0.00 | 0.00 | 47 | 1016.9 |
| 20260906132912 | 78 | 231 | 7.0 | 16.0 | 0.00 | 0.00 | 0.00 | 48 | 1017.5 |
| 20260906125910 | 75 | 188 | 8.0 | 16.0 | 0.00 | 0.00 | 0.00 | 52 | 1018.1 |
| 20260906122909 | 75 | 216 | 7.0 | 15.0 | 0.00 | 0.00 | 0.00 | 56 | 1018.4 |
| 20260906105909 | 72 | 191 | 7.0 | 19.0 | 0.00 | 0.00 | 0.00 | 60 | 1019.3 |
| 20260906085906 | 66 | 215 | 7.0 | 13.0 | 0.00 | 0.00 | 0.00 | 72 | 1020.2 |
| 20260906082907 | 64 | 138 | 7.0 | 13.0 | 0.00 | 0.00 | 0.00 | 72 | 1020.3 |
| 20260906075908 | 62 | 163 | 4.0 | 10.0 | 0.00 | 0.00 | 0.00 | 76 | 1020.5 |
| 20260906072909 | 60 | 195 | 3.0 | 6.0 | 0.00 | 0.00 | 0.00 | 80 | 1020.5 |
| 20260906065907 | 58 | 161 | 3.0 | 6.0 | 0.00 | 0.00 | 0.00 | 81 | 1020.7 |
| 20260906062908 | 57 | 188 | 3.0 | 7.0 | 0.00 | 0.00 | 0.00 | 81 | 1021.0 |
| 20260906055907 | 56 | 175 | 4.0 | 10.0 | 0.00 | 0.00 | 0.00 | 82 | 1021.2 |
| 20260906052912 | 56 | 153 | 0.0 | 6.0 | 0.00 | 0.00 | 0.00 | 81 | 1021.3 |
| 20260906045912 | 56 | 216 | 1.0 | 3.0 | 0.00 | 0.00 | 0.00 | 82 | 1021.2 |
| 20260906035858 | 56 | 0 | 2.0 | 4.0 | 0.00 | 0.00 | 0.00 | 82 | 1021.3 |
| 20260906032902 | 55 | 0 | 0.0 | 2.0 | 0.00 | 0.00 | 0.00 | 82 | 1021.4 |
| 20260906022856 | 56 | 213 | 1.0 | 4.0 | 0.00 | 0.00 | 0.00 | 80 | 1022.3 |
| 20260906015852 | 56 | 201 | 2.0 | 4.0 | 0.00 | 0.00 | 0.00 | 79 | 1022.3 |
| 20260906012852 | 58 | 206 | 3.0 | 8.0 | 0.00 | 0.00 | 0.00 | 78 | 1022.6 |
| 20260906005900 | 58 | 183 | 3.0 | 6.0 | 0.00 | 0.00 | 0.00 | 76 | 1022.7 |
| 20260906002852 | 58 | 169 | 3.0 | 7.0 | 0.00 | 0.00 | 0.00 | 77 | 1023.0 |
| 20260905232900 | 58 | 170 | 2.0 | 5.0 | 0.00 | 0.00 | 0.00 | 77 | 1023.4 |
| 20260905222843 | 59 | 89 | 1.0 | 6.0 | 0.00 | 0.00 | 0.00 | 76 | 1023.1 |
| 20260905215844 | 59 | 187 | 2.0 | 4.0 | 0.00 | 0.00 | 0.00 | 76 | 1023.1 |
| 20260905212844 | 59 | 128 | 1.0 | 2.0 | 0.00 | 0.00 | 0.00 | 75 | 1023.1 |
| 20260905195842 | 62 | 116 | 1.0 | 3.0 | 0.00 | 0.00 | 0.00 | 71 | 1022.5 |
| 20260905192848 | 62 | 0 | 0.0 | 0.0 | 0.00 | 0.00 | 0.00 | 70 | 1022.8 |
| 20260905185841 | 64 | 355 | 0.0 | 0.0 | 0.00 | 0.00 | 0.00 | 66 | 1022.6 |
| 20260905182837 | 66 | 355 | 0.0 | 2.0 | 0.00 | 0.00 | 0.00 | 62 | 1022.4 |
| 20260905175837 | 69 | 0 | 1.0 | 5.0 | 0.00 | 0.00 | 0.00 | 55 | 1022.2 |
| 20260905172840 | 69 | 0 | 3.0 | 10.0 | 0.00 | 0.00 | 0.00 | 56 | 1022.2 |